"Pseudo-MPEC" for P22oTaK

Created 2026 Aug 9 15:35:13 UT using Find_Orb

Click here for an explanation of pseudo-MPECs

 
 Astrometry: 
     P22oTaK 0C2026 08 03.48622321 11 13.327-06 28 58.34   ~87Ko 22.13GVNEOCPF52
     P22oTaK 0C2026 08 03.49847321 11 13.746-06 29 07.79   ~87Ko 21.80GVNEOCPF52
     P22oTaK 0C2026 08 03.51073021 11 14.199-06 29 17.38   ~87Ko 22.05GVNEOCPF52
     P22oTaK 0C2026 08 03.52288621 11 14.674-06 29 26.65   ~87Ko 21.52GVNEOCPF52
     P22oTaK*0C2026 08 06.43300621 13 31.146-07 10 03.06   ~86CK 22.20wXNEOCPF52
     P22oTaK 0C2026 08 06.44584121 13 31.620-07 10 14.44   ~86CK 22.04wXNEOCPF52
     P22oTaK 0C2026 08 06.45866921 13 32.100-07 10 25.67   ~86CK 22.38wXNEOCPF52
     P22oTaK 3C2026 08 07.48043721 14 20.591-07 25 49.31   ~87DK 21.53GVNEOCPT14
     P22oTaK 3C2026 08 07.48141721 14 20.625-07 25 50.20   ~87DK 21.85GVNEOCPT14
     P22oTaK 3C2026 08 07.48238921 14 20.664-07 25 51.17   ~87DK 22.31GVNEOCPT14
     P22oTaK KC2026 08 08.25872821 14 58.54 -07 38 03.1    ~89EZ 22.4 GVNEOCPH21
     P22oTaK KC2026 08 08.26190621 14 58.68 -07 38 06.5    ~89EZ 21.9 GVNEOCPH21
     P22oTaK  C2026 08 09.23325621 15 46.982-07 53 37.95   ~896Z 21.4 GWNEOCPH01
     P22oTaK  C2026 08 09.23814921 15 47.191-07 53 42.98   ~896Z 21.7 GWNEOCPH01
     P22oTaK  C2026 08 09.25213521 15 47.754-07 53 56.86   ~896Z 21.5 GWNEOCPH01
     P22oTaK  C2026 08 09.25944421 15 48.047-07 54 03.84   ~896Z 21.2 GWNEOCPH01

Station data:
(F52) Pan-STARRS 2, Haleakala  (N20.707382 W156.255910)  US/Hawaii.
   Observers J. Herman, T. Lowe, P. Minguez, A. Schultz, I. Smith. Measurers
   K. Chambers, T. de Boer, J. Fairlamb, H. Gao, M. Huber, C.-C. Lin, E.
   Magnier, Y. Ramanjooloo, R. Wainscoat, R. Weryk. 1.8-m Ritchey-Chrétien +
   CCD.
(H01) Magdalena Ridge Observatory, Socorro  (N33.984833 W107.189333)  US/New
   Mexico.  Observers W. H. Ryan, E. V. Ryan. Measurer W. H. Ryan. 2.4-m
   f/8.9 reflector + CCD.
(H21) Astronomical Research Observatory, Westfield  (N39.483054 W87.968270)
   US/Illinois.  Observer R. Holmes. Measurers S. Foglia, L. Buzzi, T.
   Linder, R. Holmes. 0.40-m f/5.32 astrograph + CCD.
(T14) Mauna Kea-UH/Tholen NEO Follow-Up (CFHT)  (N19.825252 W155.468876)
   US/Hawaii.  Observer R. Weryk. 3.6-m Canada-France-Hawaii Telescope.

Orbital elements:  P22oTaK
   Perihelion 2026 Sep 11.307894 +/- 0.11 TT =  7:23:22.0 (JD 2461294.807894)
Epoch 2026 Aug  9.0 TT = JDT 2461261.5   Earth MOID: 0.2864   Ma: 0.0883
M 350.975807038 +/- 0.06            (J2000 ecliptic)             AutoNEOCP
n   0.270932555 +/- 0.00253         Peri.  190.771060 +/- 0.09
a   2.365349133 +/- 0.0147          Node   152.163949 +/- 0.015
e   0.45283911 +/- 0.00289          Incl.    7.025599 +/- 0.034
P   3.63783                H 23.30  G  0.15   U  8.7
q 1.294226527 +/- 0.00125    Q 3.436471739 +/- 0.0282
From 16 observations 2026 Aug. 3-9; mean residual 0".12
Residuals in arcseconds: 
260803 F52  .09+  .14-    260806 F52  .05+  .15+    260809 H01  .10-  .23+    
260803 F52  .26-  .02-    260807 T14  .03+  .01+    260809 H01  .05+  .02+    
260803 F52  .15-  .04-    260807 T14  .02-  .01+    260809 H01  .01+  .11-    
260803 F52  .30+  .16+    260807 T14  .01+  .07-    260809 H01  .01-  .09+    
260806 F52  .03-  .01+    260808 H21  .25-  .20+    
260806 F52  .04-  .02+    260808 H21  .05-  .20-    

Ephemerides (geocentric):
Date (UTC) HH   RA             Dec           delta  r     elong  mag " sig PA
---- --------  ------------   ------------  ------ ------ -----  --- --------
2026 08 09 16  21 16 07.827   -08 00 26.57  .32417 1.3357 172.2 21.9 .182  78
2026 08 09 17  21 16 09.900   -08 01 07.83  .32406 1.3356 172.2 21.9 .188  78
2026 08 09 18  21 16 11.973   -08 01 49.14  .32395 1.3355 172.2 21.9 .193  77
2026 08 09 19  21 16 14.049   -08 02 30.51  .32384 1.3354 172.3 21.9 .199  77
2026 08 09 20  21 16 16.126   -08 03 11.92  .32373 1.3353 172.3 21.9 .205  77
2026 08 09 21  21 16 18.204   -08 03 53.39  .32362 1.3352 172.3 21.9 .211  77
2026 08 09 22  21 16 20.284   -08 04 34.92  .32351 1.3351 172.3 21.9 .217  76
2026 08 09 23  21 16 22.365   -08 05 16.49  .32340 1.3350 172.3 21.9 .223  76
2026 08 10 00  21 16 24.448   -08 05 58.12  .32330 1.3349 172.4 21.9 .229  76
2026 08 10 01  21 16 26.532   -08 06 39.79  .32319 1.3348 172.4 21.9 .235  76
2026 08 10 02  21 16 28.618   -08 07 21.52  .32308 1.3347 172.4 21.9 .241  75
2026 08 10 03  21 16 30.705   -08 08 03.30  .32297 1.3346 172.4 21.9 .247  75
2026 08 10 04  21 16 32.794   -08 08 45.14  .32286 1.3345 172.5 21.9 .253  75
2026 08 10 05  21 16 34.885   -08 09 27.02  .32276 1.3344 172.5 21.9 .259  75
2026 08 10 06  21 16 36.977   -08 10 08.96  .32265 1.3342 172.5 21.9 .265  75
2026 08 10 07  21 16 39.070   -08 10 50.95  .32254 1.3341 172.5 21.9 .272  75
2026 08 10 08  21 16 41.166   -08 11 32.98  .32243 1.3340 172.5 21.9 .278  74
2026 08 10 09  21 16 43.262   -08 12 15.07  .32233 1.3339 172.6 21.9 .284  74
2026 08 10 10  21 16 45.361   -08 12 57.21  .32222 1.3338 172.6 21.9 .291  74
2026 08 10 11  21 16 47.461   -08 13 39.41  .32211 1.3337 172.6 21.9 .297  74
2026 08 10 12  21 16 49.562   -08 14 21.65  .32201 1.3336 172.6 21.9 .304  74
2026 08 10 13  21 16 51.665   -08 15 03.94  .32190 1.3335 172.6 21.9 .311  74
2026 08 10 14  21 16 53.770   -08 15 46.29  .32180 1.3334 172.7 21.9 .317  74
2026 08 10 15  21 16 55.876   -08 16 28.68  .32169 1.3333 172.7 21.9 .324  74
2026 08 10 16  21 16 57.984   -08 17 11.12  .32159 1.3332 172.7 21.9 .331  74
2026 08 10 17  21 17 00.094   -08 17 53.62  .32148 1.3331 172.7 21.9 .337  73
2026 08 10 18  21 17 02.205   -08 18 36.17  .32138 1.3330 172.7 21.9 .344  73
2026 08 10 19  21 17 04.318   -08 19 18.76  .32127 1.3329 172.8 21.9 .351  73
2026 08 10 20  21 17 06.432   -08 20 01.41  .32117 1.3328 172.8 21.9 .358  73
2026 08 10 21  21 17 08.548   -08 20 44.10  .32106 1.3327 172.8 21.9 .365  73
2026 08 10 22  21 17 10.666   -08 21 26.85  .32096 1.3326 172.8 21.9 .372  73
2026 08 10 23  21 17 12.786   -08 22 09.64  .32086 1.3325 172.8 21.9 .379  73
2026 08 11 00  21 17 14.907   -08 22 52.49  .32075 1.3324 172.9 21.9 .386  73
2026 08 11 01  21 17 17.029   -08 23 35.38  .32065 1.3323 172.9 21.9 .393  73
2026 08 11 02  21 17 19.154   -08 24 18.33  .32055 1.3322 172.9 21.9 .400  73
2026 08 11 03  21 17 21.280   -08 25 01.32  .32045 1.3321 172.9 21.9 .407  73
2026 08 11 04  21 17 23.408   -08 25 44.36  .32034 1.3320 172.9 21.9 .414  73
2026 08 11 05  21 17 25.537   -08 26 27.45  .32024 1.3319 173.0 21.9 .422  73
2026 08 11 06  21 17 27.669   -08 27 10.59  .32014 1.3319 173.0 21.9 .429  73
2026 08 11 07  21 17 29.802   -08 27 53.78  .32004 1.3318 173.0 21.9 .436  73
2026 08 11 08  21 17 31.936   -08 28 37.02  .31994 1.3317 173.0 21.9 .443  73
2026 08 11 09  21 17 34.073   -08 29 20.31  .31984 1.3316 173.0 21.9 .451  73
2026 08 11 10  21 17 36.211   -08 30 03.64  .31973 1.3315 173.0 21.9 .458  73
2026 08 11 11  21 17 38.351   -08 30 47.03  .31963 1.3314 173.1 21.9 .466  73
2026 08 11 12  21 17 40.492   -08 31 30.46  .31953 1.3313 173.1 21.9 .473  73
2026 08 11 13  21 17 42.636   -08 32 13.94  .31943 1.3312 173.1 21.9 .481  73
2026 08 11 14  21 17 44.781   -08 32 57.47  .31933 1.3311 173.1 21.9 .488  73
2026 08 11 15  21 17 46.928   -08 33 41.05  .31923 1.3310 173.1 21.9 .496  73